Boulder City, NV

4:06 PM PDT on October 17, 2017 (GMT -0700)
Boulder City

Weather History for KBVU - March, 2014

Change the Weather History Date:

Sunday, March 16, 2014

  Actual Average (KLAS) Record (KLAS)
Temperature  
Mean Temperature 64 °F -  
Max Temperature 78 °F 70 °F 89 °F (2007)
Min Temperature 51 °F 45 °F 31 °F (1956)
Growing Degree Days 14 (Base 50)    
Moisture  
Dew Point 9 °F    
Average Humidity 12    
Maximum Humidity 33    
Minimum Humidity 7    
Precipitation  
Precipitation 0.00 in - - ()
Sea Level Pressure  
Sea Level Pressure 30.26 in    
Wind  
Wind Speed 5 mph (NNE)    
Max Wind Speed 13 mph    
Max Gust Speed 14 mph    
Visibility 10 miles    
Events Thunderstorm    
Averages and records for this station are not official NWS values.
T = Trace of Precipitation, MM = Missing Value Source: NWS Daily Summary

Daily Weather History Graph

Daily Weather History Graph

Search for Another Location

Airport or City:

Trip Planner

Search our weather history database for the weather conditions in past years. The results will help you decide how hot, cold, wet, or windy it might be!

Date:

Astronomy

Mar. 16, 2014 Rise Set
Actual Time 6:48 AM PDT 6:47 PM PDT
Civil Twilight 6:23 AM PDT 7:13 PM PDT
Nautical Twilight 5:53 AM PDT 7:43 PM PDT
Astronomical Twilight 5:23 AM PDT 8:13 PM PDT
Moon 7:07 PM PDT (3/16) 6:35 AM PDT (3/16)
Length of Visible Light 12h 50m
Length of Day
11h 59m
Full, 100% of the Moon is Illuminated
Mar 16
Full
Mar 23
Last Quarter
Mar 30
New
Apr 7
First Quarter
Apr 15
Full

Hourly Weather History & Observations

Time (PDT) Temp. Dew Point Humidity Pressure Visibility Wind Dir Wind Speed Gust Speed Precip Events Conditions
12:15 AM 64.4 °F 3.2 °F 9% 30.32 in 10.0 mi NNE 12.7 mph - N/A   Clear
12:35 AM 64.4 °F 1.4 °F 8% 30.33 in 10.0 mi WNW 3.5 mph - N/A   Clear
12:55 AM 62.6 °F -0.4 °F 8% 30.33 in 10.0 mi WNW 6.9 mph - N/A   Clear
1:15 AM 62.6 °F 1.4 °F 9% 30.34 in 10.0 mi NNW 6.9 mph - N/A   Clear
1:35 AM 59.0 °F 5.0 °F 12% 30.34 in 10.0 mi North 9.2 mph - N/A   Clear
1:55 AM 60.8 °F 5.0 °F 11% 30.34 in 10.0 mi NNE 10.4 mph - N/A   Clear
2:15 AM 59.0 °F 8.6 °F 14% 30.34 in 10.0 mi North 8.1 mph - N/A   Clear
2:35 AM 57.2 °F 3.2 °F 11% 30.34 in 10.0 mi North 10.4 mph - N/A   Clear
2:55 AM 60.8 °F 5.0 °F 11% 30.33 in 10.0 mi NNE 11.5 mph - N/A   Clear
3:15 AM 59.0 °F 6.8 °F 13% 30.33 in 10.0 mi NNE 9.2 mph - N/A   Clear
3:35 AM 57.2 °F 3.2 °F 11% 30.33 in 10.0 mi North 6.9 mph - N/A   Clear
3:55 AM 53.6 °F 14.0 °F 21% 30.33 in 10.0 mi North 5.8 mph - N/A   Clear
4:15 AM 55.4 °F 5.0 °F 13% 30.33 in 10.0 mi NNW 6.9 mph - N/A   Clear
4:35 AM 57.2 °F 5.0 °F 12% 30.33 in 10.0 mi North 9.2 mph - N/A   Clear
4:55 AM 55.4 °F 6.8 °F 14% 30.34 in 10.0 mi Calm Calm - N/A   Clear
5:15 AM 55.4 °F 3.2 °F 12% 30.34 in 10.0 mi NW 4.6 mph - N/A   Clear
5:35 AM 55.4 °F 3.2 °F 12% 30.34 in 10.0 mi WSW 6.9 mph - N/A   Clear
5:55 AM 55.4 °F 3.2 °F 12% 30.35 in 10.0 mi Calm Calm - N/A   Clear
6:15 AM 57.2 °F 3.2 °F 11% 30.35 in 10.0 mi Calm Calm - N/A   Clear
6:35 AM 53.6 °F 6.8 °F 15% 30.35 in 10.0 mi Calm Calm - N/A   Clear
6:55 AM 51.8 °F 5.0 °F 15% 30.36 in 10.0 mi Calm Calm - N/A   Clear
7:15 AM 51.8 °F 3.2 °F 14% 30.36 in 10.0 mi NW 6.9 mph - N/A   Clear
7:35 AM 53.6 °F 3.2 °F 13% 30.37 in 10.0 mi Calm Calm - N/A   Clear
7:55 AM 55.4 °F 5.0 °F 13% 30.38 in 10.0 mi WSW 4.6 mph - N/A   Clear
8:15 AM 55.4 °F 3.2 °F 12% 30.38 in 10.0 mi Calm Calm - N/A   Clear
8:35 AM 55.4 °F 3.2 °F 12% 30.38 in 10.0 mi Calm Calm - N/A   Clear
8:55 AM 59.0 °F 5.0 °F 12% 30.38 in 10.0 mi Calm Calm - N/A   Clear
9:15 AM 62.6 °F 6.8 °F 11% 30.38 in 10.0 mi ESE 4.6 mph - N/A   Clear
9:35 AM 62.6 °F 6.8 °F 11% 30.39 in 10.0 mi SSW 3.5 mph - N/A   Clear
9:55 AM 64.4 °F 6.8 °F 10% 30.39 in 10.0 mi SW 3.5 mph - N/A   Clear
10:15 AM 68.0 °F 6.8 °F 9% 30.39 in 10.0 mi Calm Calm - N/A   Clear
10:35 AM 69.8 °F 6.8 °F 9% 30.38 in 10.0 mi Variable 4.6 mph - N/A   Clear
10:55 AM 69.8 °F 8.6 °F 9% 30.37 in 10.0 mi SE 4.6 mph - N/A   Clear
11:15 AM 69.8 °F 8.6 °F 9% 30.37 in 10.0 mi Variable 3.5 mph - N/A Thunderstorm Clear
11:35 AM 71.6 °F 6.8 °F 8% 30.36 in 10.0 mi East 5.8 mph - N/A Thunderstorm Clear
11:55 AM 71.6 °F 6.8 °F 8% 30.35 in 10.0 mi Variable 6.9 mph - N/A   Clear
12:15 PM 71.6 °F 6.8 °F 8% 30.34 in 10.0 mi Calm Calm - N/A   Clear
12:35 PM 73.4 °F 6.8 °F 8% 30.33 in 10.0 mi NNE 4.6 mph - N/A   Clear
12:55 PM 73.4 °F 6.8 °F 8% 30.32 in 10.0 mi Variable 5.8 mph - N/A   Clear
1:15 PM 73.4 °F 8.6 °F 8% 30.30 in 10.0 mi Calm Calm - N/A   Clear
1:35 PM 75.2 °F 8.6 °F 8% 30.28 in 10.0 mi Variable 6.9 mph - N/A   Clear
1:55 PM 75.2 °F 8.6 °F 8% 30.27 in 10.0 mi Calm Calm - N/A   Clear
2:15 PM 77.0 °F 8.6 °F 7% 30.26 in 10.0 mi North 5.8 mph - N/A   Clear
2:35 PM 77.0 °F 10.4 °F 8% 30.24 in 10.0 mi Variable 4.6 mph 13.8 mph N/A Thunderstorm Clear
2:55 PM 77.0 °F 8.6 °F 7% 30.23 in 10.0 mi NNW 3.5 mph - N/A   Clear
3:15 PM 78.8 °F 8.6 °F 7% 30.22 in 10.0 mi Calm Calm - N/A   Clear
3:35 PM 77.0 °F 8.6 °F 7% 30.21 in 10.0 mi Calm Calm - N/A   Clear
3:55 PM 78.8 °F 10.4 °F 7% 30.20 in 10.0 mi Calm Calm - N/A   Clear
4:15 PM 78.8 °F 10.4 °F 7% 30.19 in 10.0 mi Calm Calm - N/A   Clear
4:35 PM 78.8 °F 8.6 °F 7% 30.18 in 10.0 mi East 3.5 mph - N/A   Clear
4:55 PM 78.8 °F 10.4 °F 7% 30.17 in 10.0 mi Calm Calm - N/A   Clear
5:15 PM 78.8 °F 10.4 °F 7% 30.16 in 10.0 mi SE 4.6 mph - N/A   Clear
5:35 PM 78.8 °F 10.4 °F 7% 30.15 in 10.0 mi Calm Calm - N/A   Clear
5:55 PM 78.8 °F 8.6 °F 7% 30.14 in 10.0 mi Calm Calm - N/A   Clear
6:15 PM 77.0 °F 8.6 °F 7% 30.14 in 10.0 mi Calm Calm - N/A   Clear
6:35 PM 77.0 °F 8.6 °F 7% 30.14 in 10.0 mi ENE 4.6 mph - N/A   Clear
6:55 PM 71.6 °F 17.6 °F 13% 30.14 in 10.0 mi ENE 3.5 mph - N/A   Clear
7:15 PM 68.0 °F 23.0 °F 18% 30.13 in 10.0 mi NE 4.6 mph - N/A   Clear
7:35 PM 68.0 °F 19.4 °F 16% 30.13 in 10.0 mi NE 5.8 mph - N/A   Clear
7:55 PM 68.0 °F 19.4 °F 16% 30.13 in 10.0 mi NE 5.8 mph - N/A   Clear
8:15 PM 66.2 °F 19.4 °F 17% 30.12 in 10.0 mi North - - N/A   Clear
8:35 PM 64.4 °F 24.8 °F 22% 30.12 in 10.0 mi ENE 4.6 mph - N/A   Clear
8:55 PM 60.8 °F 24.8 °F 25% 30.12 in 10.0 mi Calm Calm - N/A   Clear
9:15 PM 62.6 °F 19.4 °F 19% 30.12 in 10.0 mi Calm Calm - N/A   Clear
9:35 PM 64.4 °F 19.4 °F 18% 30.12 in 10.0 mi East 4.6 mph - N/A Thunderstorm Clear
9:55 PM 62.6 °F 19.4 °F 19% 30.12 in 10.0 mi Calm Calm - N/A   Clear
10:15 PM 57.2 °F 28.4 °F 33% 30.11 in 10.0 mi ENE 3.5 mph - N/A Thunderstorm Clear
10:35 PM 59.0 °F 21.2 °F 23% 30.11 in 10.0 mi NE 3.5 mph - N/A   Clear
10:55 PM 59.0 °F 14.0 °F 17% 30.10 in 10.0 mi NW 4.6 mph - N/A   Clear
11:15 PM 60.8 °F 12.2 °F 15% 30.10 in 10.0 mi WNW 3.5 mph - N/A   Clear
11:35 PM 59.0 °F 14.0 °F 17% 30.09 in 10.0 mi Calm Calm - N/A   Clear
11:55 PM 57.2 °F 19.4 °F 23% 30.08 in 10.0 mi Calm Calm - N/A   Clear